www.pogodaiklimat.ru

Погода и климат >> Архив погоды >> Гренландия >> Aasiaat Mittarfia


ПОГОДА в Aasiaat Mittarfia

  • Прогноз погоды в Aasiaat Mittarfia
  • Монитор погоды в Aasiaat Mittarfia

АРХИВ ПОГОДЫ в Aasiaat Mittarfia

Время (UTC), дата Ветер
(напр.,м/с)
 
Видим.   Явления Облачность Т
(С)
Тd
(С)
f
(%)
Тe
(С)
Тes
(С)
Комфортность P
(гПа)
Po
(гПа)
Тmin
(С)
Tmax
(С)
R
(мм)
R24
(мм)
S
(см)
13 10.09 З 2 45 км 10/10 870 м
[]
+5.0 +0.3 72 +3 +3 1004.6 1001.4
14 10.09 З 2 45 км 10/10 800 м
[]
+5.2 +0.1 70 +3 +3 1004.7 1001.5
15 10.09 З 4 50 км 9/9 800 м
[]
+5.7 -2.0 58 +2 +3 1004.7 1001.5
16 10.09 З 4 35 км 9/9 870 м
[]
+5.7 -0.3 65 +2 +3 1004.8 1001.5
17 10.09 З 4 45 км 9/9 1020 м
[]
+5.7 -1.5 60 +2 +3 1004.8 1001.6
18 10.09 З 3 50 км 9/9 750 м
[]
+5.9 +0.3 67 +3 +3 1005.0 1001.7 +3.9 +6.0
19 10.09 З 4 45 км слаб. ливневой дождь 10/10 660 м
[]
+5.7 +0.6 70 +2 +2 1005.2 1002.0
20 10.09 ЮЗ 2 40 км {ливн. осадки} 4/4 870 м
[]
+6.3 -0.7 61 +4 +5 1005.3 1002.1
21 10.09 СВ 3 45 км {ливн. осадки} 9/9 630 м
[]
+5.4 +1.3 75 +3 +3 1005.5 1002.3
22 10.09 СВ 1 40 км {ливн. осадки} 9/9 540 м
[]
+5.5 +1.0 73 +4 +4 1005.7 1002.5
23 10.09 ЮЗ 2 26 км {ливн. осадки} 9/9 1080 м
[]
+4.6 +1.0 77 +2 +2 1005.8 1002.6
00 11.09 Ю 2 45 км 9/9 960 м
[]
+4.6 +1.0 77 +3 +3 1005.9 1002.6
01 11.09 Ю 2 45 км 9/9 930 м
[]
+4.7 +1.1 77 +3 +3 1005.8 1002.5
02 11.09 Ю 1 13 км слаб. ливневой дождь {морось} 9/9 660 м
[]
+4.3 +1.5 82 +3 +3 1005.7 1002.4
03 11.09 штиль 0 30 км в посл. час дождь {ливн. осадки, морось} 9/9 1000 м
[]
+4.1 +1.3 82 +3 +3 1005.6 1002.3
04 11.09 Ю 1 18 км в посл. час морось {ливн. осадки} 9/9 400 м
[]
+4.0 +2.4 89 +2 +2 1005.6 1002.3
05 11.09 ЮВ 2 45 км в посл. час морось {ливн. осадки} 9/9 330 м
[]
+3.7 +2.3 91 +1 +1 1005.4 1002.1
06 11.09 ЮВ 2 45 км {ливн. осадки} 9/9 330 м
[]
+3.4 +2.4 93 +1 +1 1005.4 1002.1 +3.4 +6.4
07 11.09 Ю 3 50 км в посл. час осадки {ливн. осадки, морось} 9/9 400 м
[]
+3.8 +1.7 86 0 0 1005.5 1002.2
08 11.09 Ю 1 35 км {ливн. осадки, морось} 9/9 360 м
[]
+3.7 +1.8 87 +2 +2 1005.6 1002.3
09 11.09 Ю 2 50 км {ливн. осадки, морось} 9/9 1500 м
[]
+3.7 +1.6 86 +1 +1 1005.6 1002.3
10 11.09 ЮВ 2 45 км {ливн. осадки, морось} 9/9 750 м
[]
+3.9 +1.6 85 +2 +2 1005.7 1002.5
11 11.09 В 2 50 км {ливн. осадки, морось} 10/0
[]
+4.2 +1.7 84 +1 +2 1005.7 1002.4
12 11.09 ЮВ 2 40 км 9/0 2000 м
[]
+5.1 +1.2 76 +3 +4 1005.5 1002.3
13 11.09 В 2 35 км слаб. дождь {осадки} 9/9 720 м
[]
+4.8 +1.2 77 +2 +2 1005.5 1002.2
14 11.09 В 2 7000 м слаб. ливневой дождь 10/10 630 м
[]
+4.3 +1.1 80 +2 +2 1005.4 1002.2
15 11.09 В 4 40 км слаб. ливневой дождь 9/9 800 м
[]
+4.7 +1.7 81 +1 +1 1005.2 1002.0
16 11.09 СВ 5 30 км слаб. ливневой дождь 9/9 800 м
[]
+4.6 +1.6 81 0 0 1005.1 1001.9
17 11.09 В 5 11 км слаб. ливневой дождь 10/10 360 м
[]
+3.9 +1.6 85 -1 -1 1005.2 1002.0
18 11.09 СВ 5 35 км слаб. морось 9/9 400 м
[]
+4.1 +1.8 85 -1 -1 1005.1 1001.9 +3.4 +5.1
19 11.09 СВ 4 35 км в посл. час морось 9/9 400 м
[]
+4.2 +1.0 80 -0 -0 1005.1 1001.9
20 11.09 СВ 4 45 км {морось} 9/9 1110 м
[]
+4.0 +0.6 78 0 0 1005.3 1002.0
21 11.09 СВ 4 35 км {морось} 9/0
[]
+4.0 +0.2 76 0 0 1005.1 1001.9
22 11.09 СВ 4 45 км {морось} 8/8 1260 м
[]
+3.6 -0.2 76 -1 -1 1005.1 1001.9
23 11.09 В 3 40 км {морось} 4/0
[]
+2.9 -0.7 77 -1 -1 1005.3 1002.1
00 12.09 СВ 3 29 км 8/8 1350 м
[]
+3.2 -1.0 74 -1 -1 1005.5 1002.2
01 12.09 СВ 2 40 км н/о +3.3 -1.3 72 +1 +1 1005.4 1002.1
02 12.09 СВ 4 35 км н/о +3.0 -1.0 75 -1 -1 1005.5 1002.3
03 12.09 СВ 3 35 км н/о +2.9 -1.3 74 -1 -1 1005.5 1002.3
04 12.09 СВ 2 50 км н/о +2.9 -1.9 71 0 0 1005.6 1002.3
05 12.09 СВ 2 35 км н/о +2.9 -2.1 70 0 0 1005.5 1002.2
06 12.09 СВ 2 50 км 5/0
[]
+3.1 -1.7 71 +1 +1 1005.7 1002.4 +2.8 +4.3
07 12.09 СВ 3 50 км 10/0
[]
+3.1 -1.1 74 -0 -0 1005.9 1002.7
08 12.09 СВ 4 25 км 3/0
[]
+2.8 -1.8 72 -1 -1 1006.1 1002.8
09 12.09 СВ 3 35 км н/о +2.5 -1.7 74 -1 -1 1006.3 1003.0
10 12.09 СВ 2 50 км н/о +2.9 -1.7 72 0 0 1006.6 1003.3
11 12.09 СВ 2 45 км н/о +3.6 -1.9 67 +1 +1 1006.9 1003.6
12 12.09 СВ 1 40 км н/о +4.4 -2.3 62 +3 +3 1007.2 1004.0
13 12.09 С 1 45 км н/о +4.2 -2.7 61 +3 +3 1007.4 1004.1
14 12.09 С 1 35 км н/о +4.4 -2.3 62 +3 +3 1007.6 1004.3
15 12.09 С 2 35 км н/о +4.4 -2.5 61 +3 +3 1007.7 1004.5
16 12.09 С 1 35 км 3/3 1170 м
[]
+4.2 -2.4 62 +3 +6 1007.8 1004.6
17 12.09 С 2 50 км 1/1 600 м
[]
+4.3 -2.1 63 +3 +6 1008.0 1004.7
18 12.09 СЗ 1 35 км н/о +4.9 -1.8 62 +5 +5 1008.0 1004.8 +4.2 +4.9
19 12.09 СЗ 2 35 км н/о +4.9 -1.5 63 +3 +3 1008.3 1005.0
20 12.09 СЗ 2 35 км 1/1 1230 м
[]
+4.7 -2.0 62 +3 +4 1008.6 1005.3
21 12.09 СЗ 1 45 км 1/1 1200 м
[]
+5.0 -2.2 60 +4 +4 1008.6 1005.3
22 12.09 В 1 45 км 6/0
[]
+3.7 -1.1 71 +2 +2 1008.8 1005.5
23 12.09 В 1 45 км н/о +3.6 -1.4 70 +4 +4 1008.9 1005.6
00 13.09 ЮВ 2 28 км 4/4 1380 м
[]
+2.9 -0.7 77 +1 +1 1008.9 1005.6
01 13.09 ЮВ 1 35 км 5/5 930 м
[]
+2.7 -0.3 81 +1 +1 1008.6 1005.3
02 13.09 ЮВ 2 50 км 9/9 1470 м
[]
+2.8 0.0 82 -0 -0 1008.4 1005.1
03 13.09 штиль 0 40 км 10/10 1500 м
[]
+3.1 -0.7 76 +2 +2 1008.2 1005.0
04 13.09 СВ 1 45 км 9/9 1500 м
[]
+3.5 -2.0 67 +4 +4 1007.9 1004.6
05 13.09 В 1 35 км 9/9 1500 м
[]
+3.3 -1.3 72 +3 +3 1007.7 1004.4
06 13.09 ЮВ 2 40 км 10/0 2000 м
[]
+3.0 -1.4 73 +1 +1 1007.6 1004.3 +2.5 +5.1
07 13.09 Ю 2 40 км 9/9 1320 м
[]
+2.5 -2.1 72 0 0 1007.4 1004.1
08 13.09 ЮВ 2 40 км 9/9 1260 м
[]
+2.6 -1.8 73 -0 -0 1007.2 1003.9
09 13.09 Ю 2 40 км 9/9 1080 м
[]
+2.9 -0.9 76 -0 -0 1007.0 1003.7
10 13.09 Ю 3 35 км 10/10 1000 м
[]
+3.3 -1.9 69 0 0 1006.8 1003.5
11 13.09 Ю 3 50 км 9/9 1020 м
[]
+3.5 -1.3 71 -0 -0 1006.8 1003.5
12 13.09 Ю 2 35 км 9/0
[]
+3.9 -0.7 72 +1 +2 1006.7 1003.4
13 13.09 Ю 2 45 км 10/10 1500 м
[]
+4.4 -2.5 61 +2 +2 1006.4 1003.1
14 13.09 Ю 2 50 км 10/10 1500 м
[]
+4.9 -2.5 59 +3 +3 1006.0 1002.8
15 13.09 С 2 40 км 9/9 1500 м
[]
+4.6 -2.1 62 +2 +3 1005.7 1002.4
16 13.09 С 3 50 км 1/1 1500 м
[]
+4.5 -1.7 64 +2 +4 1005.2 1001.9
17 13.09 С 3 45 км 1/0
[]
+4.5 -1.7 64 +1 +4 1004.8 1001.5
18 13.09 С 3 45 км н/о +4.6 -1.8 63 +1 +1 1004.6 1001.3 +2.4 +5.1
19 13.09 С 4 7000 м н/о +4.6 -2.3 61 +1 +1 1004.3 1001.0
20 13.09 С 4 50 км н/о +4.6 -2.5 60 +1 +1 1004.3 1001.0
21 13.09 СВ 3
{10}
28 км 1/0
[]
+4.7 -2.9 58 +2 +2 1004.1 1000.9
22 13.09 СВ 4 50 км н/о +4.1 -2.3 63 0 0 1004.1 1000.8
23 13.09 СВ 2 50 км н/о +3.5 -1.8 68 +1 +1 1003.8 1000.6
00 14.09 СВ 2
{10}
45 км н/о +3.5 -1.8 68 +1 +1 1003.8 1000.5
01 14.09 50 км н/о +4.1 -2.1 64 1003.5 1000.3
02 14.09 СВ 5 40 км н/о +3.6 -1.0 72 -1 -1 1003.3 1000.1
03 14.09 СВ 3 40 км н/о +3.0 -1.4 73 -1 -1 1003.0 999.7
04 14.09 СВ 3 45 км н/о +3.0 -1.0 75 -0 -0 1002.7 999.4
05 14.09 СВ 2 40 км 1/1 600 м
[]
+3.1 -0.9 75 +1 +1 1002.4 999.1
06 14.09 С 3 45 км 1/1 570 м
[]
+3.4 -1.0 73 0 0 1002.1 998.9 +2.9 +4.9
07 14.09 С 3 40 км 1/1 660 м
[]
+3.5 -0.5 75 -0 -0 1002.2 998.9
08 14.09 С 3 35 км 3/3 660 м
[]
+3.4 -1.4 71 0 0 1001.9 998.7
09 14.09 З 1 50 км н/о +2.7 -1.7 73 +3 +3 1001.9 998.7
10 14.09 З 2 50 км 9/9 630 м
[]
+3.1 -2.6 66 0 0 1002.0 998.7
11 14.09 Ю 2 45 км 9/0
[]
+3.7 -0.5 74 +1 +1 1001.9 998.7
12 14.09 ЮЗ 2 45 км 9/0 2000 м
[]
+3.9 -1.4 68 +1 +2 1002.1 998.8
13 14.09 ЮЗ 3 29 км 9/9 1500 м
[]
+4.4 -1.8 64 +2 +2 1001.9 998.6
14 14.09 З 3 35 км слаб. дождь {морось} 9/9 700 м
[]
+3.3 +1.2 86 -0 0 1001.9 998.6
15 14.09 З 5 2900 м слаб. ливневой дождь 9/9 360 м
[]
+2.9 +0.6 85 -2 -2 1001.9 998.7
16 14.09 З 7 40 км в посл. час дождь {ливн. осадки} 4/4 330 м
[]
+4.1 +1.6 84 -2 -1 1001.9 998.6
17 14.09 З 8 30 км {ливн. осадки, дождь} 9/9 400 м
[]
+4.6 +1.7 81 -1 -1 1002.1 998.8
18 14.09 З 8 35 км 9/9 480 м
[]
+4.6 +0.6 75 -1 -1 1002.5 999.2 +2.4 +4.8
19 14.09 З 7 50 км 9/9 500 м
[]
+4.6 +0.4 74 -1 -1 1003.0 999.8
20 14.09 З 7 40 км 9/9 500 м
[]
+4.6 -0.1 72 -1 -1 1003.4 1000.1
21 14.09 З 7 40 км 9/0
[]
+4.3 -0.6 70 -1 -1 1003.9 1000.6
22 14.09 З 7 7000 м 9/9 400 м
[]
+3.9 +0.3 77 -2 -2 1004.5 1001.3
23 14.09 З 7 29 км 10/0
[]
+3.7 +0.1 77 -2 -2 1005.0 1001.7
00 15.09 ЮЗ 5 50 км 9/9 1200 м
[]
+3.7 +0.9 82 -1 -1 1005.4 1002.2
01 15.09 ЮЗ 4 35 км в посл. час осадки {ливн. осадки, морось} 10/0 2000 м
[]
+3.2 +0.6 83 -2 -2 1005.8 1002.5
02 15.09 ЮЗ 4 29 км в посл. час морось {ливн. осадки} 9/0
[]
+3.3 +1.0 85 -1 -1 1006.0 1002.8
03 15.09 Ю 6 45 км в посл. час дождь {ливн. осадки, морось} 9/9 1500 м
[]
+2.3 +0.9 90 -4 -4 1006.4 1003.1
04 15.09 ЮЗ 4 15 км слаб. ливневой дождь {морось} 9/9 400 м
[]
+3.0 +1.5 90 -2 -2 1006.7 1003.4
05 15.09 ЮЗ 4 35 км {ливн. осадки, морось} 8/8 480 м
[]
+2.9 +0.5 84 -2 -2 1007.1 1003.9
06 15.09 ЮЗ 4 30 км 5/5 630 м
[]
+2.7 +0.1 83 -2 -2 1007.6 1004.3 +2.3 +4.6
07 15.09 З 5 50 км 6/6 840 м
[]
+3.3 +0.7 83 -2 -2 1008.1 1004.9
08 15.09 З 6 45 км 9/9 540 м
[]
+3.6 +0.4 80 -2 -2 1008.7 1005.4
09 15.09 ЮЗ 5 45 км 9/9 1500 м
[]
+3.2 +0.8 84 -2 -2 1009.2 1005.9
10 15.09 З 5 40 км 9/9 1200 м
[]
+3.4 +0.2 80 -2 -2 1009.8 1006.5
11 15.09 З 6 45 км 10/10 1140 м
[]
+3.8 0.0 76 -2 -2 1010.3 1007.0
12 15.09 ЮЗ 5 40 км 9/9 720 м
[]
+3.8 +1.0 82 -1 -1 1010.7 1007.5
13 15.09 ЮЗ 8 40 км 9/9 420 м
[]
+4.2 +1.0 80 -2 -2 1011.1 1007.9
14 15.09 З 7 17 км слаб. ливневой дождь {морось} 9/9 450 м
[]
+4.1 +1.6 84 -2 -2 1011.6 1008.3
15 15.09 З 10 25 км {ливн. осадки, морось} 6/6 480 м
[]
+3.9 +0.7 80 -3 -3 1011.9 1008.6
16 15.09 З 8 35 км {ливн. осадки, морось} 8/8 400 м
[]
+4.2 +1.4 82 -2 -2 1012.3 1009.0
17 15.09 З 9 30 км {ливн. осадки, морось} 8/8 400 м
[]
+4.4 +0.8 77 -2 -2 1012.7 1009.4
18 15.09 З 9 35 км 9/9 420 м
[]
+4.4 +0.6 76 -2 -2 1013.4 1010.1 +2.7 +5.2
19 15.09 З 7 11 км ливневой дождь {осадки} 6/6 630 м
[]
+4.0 +1.2 82 -2 -2 1014.0 1010.7
20 15.09 З 8 30 км {ливн. осадки, осадки} 5/5 450 м
[]
+4.7 +1.1 77 -1 -1 1014.8 1011.5
21 15.09 З 9 17 км слаб. ливневой дождь {осадки} 9/9 400 м
[]
+3.6 +1.0 83 -3 -3 1015.2 1011.9
22 15.09 З 7 30 км {ливн. осадки, осадки} 9/9 1110 м
[]
+4.2 +1.0 80 -2 -2 1015.5 1012.2
23 15.09 З 6 35 км в посл. час морось {ливн. осадки} 9/9 800 м
[]
+3.7 +0.9 82 -2 -2 1016.0 1012.7
00 16.09 З 7 27 км в посл. час морось {ливн. осадки} 9/9 800 м
[]
+3.7 +0.7 81 -2 -2 1016.4 1013.1
01 16.09 ЮЗ 6 35 км в посл. час морось {ливн. осадки} 9/9 1140 м
[]
+3.5 +0.7 82 -2 -2 1016.6 1013.3
02 16.09 З 7 35 км {ливн. осадки} 9/9 900 м
[]
+3.6 +0.6 81 -2 -2 1016.9 1013.6
03 16.09 З 5 35 км {ливн. осадки} 9/9 420 м
[]
+3.7 +0.5 80 -1 -1 1017.1 1013.8
04 16.09 З 6 35 км {ливн. осадки} 9/9 450 м
[]
+3.9 +0.3 77 -1 -1 1017.2 1013.9
05 16.09 З 6 40 км {ливн. осадки} 9/9 480 м
[]
+4.0 +1.0 81 -1 -1 1017.5 1014.2
06 16.09 ЮЗ 5 30 км 9/9 1000 м
[]
+3.5 +0.3 80 -2 -2 1017.6 1014.3 +2.8 +4.9
07 16.09 ЮЗ 4 35 км 9/9 540 м
[]
+3.7 +0.7 81 -1 -1 1018.0 1014.7
08 16.09 ЮЗ 5 40 км 9/9 600 м
[]
+3.9 -0.5 73 -1 -1 1018.2 1014.9
09 16.09 ЮЗ 6 40 км 9/9 400 м
[]
+2.6 +0.9 89 -3 -3 1018.6 1015.3
10 16.09 ЮЗ 5 45 км 10/0 2000 м
[]
+2.9 +0.6 85 -2 -2 1019.0 1015.7
11 16.09 ЮЗ 4 40 км в посл. час дождь {ливн. осадки} 9/9 360 м
[]
+3.3 +1.6 89 -1 -1 1019.4 1016.0
12 16.09 З 4 40 км {ливн. осадки} 9/9 1500 м
[]
+4.0 +1.0 81 -0 -0 1019.6 1016.3
13 16.09 ЮЗ 4 40 км 9/9 1500 м
[]
+4.3 +1.1 80 0 0 1019.9 1016.6
14 16.09 З 7-10
{10}
6000 м морось 9/9 360 м
[]
+3.0 +1.5 90 -3 -3 1020.1 1016.8
15 16.09 ЮЗ 3
{10}
35 км в посл. час дождь {ливн. осадки} 9/9 630 м
[]
+4.1 +0.9 80 +1 +1 1020.1 1016.8
16 16.09 З 4 45 км {ливн. осадки, дождь} 9/9 500 м
[]
+4.4 +0.2 74 0 0 1020.2 1016.9
17 16.09 З 5 29 км {ливн. осадки, дождь} 9/9 930 м
[]
+4.8 +0.3 73 +1 +1 1020.5 1017.2
18 16.09 З 4
{10}
40 км ливневой дождь {осадки} 9/9 400 м
[]
+4.4 +0.8 77 +1 +1 1020.7 1017.4 +2.4 +5.0
19 16.09 ЮЗ 4 40 км {ливн. осадки} 9/0 2000 м
[]
+4.4 +0.4 75 0 +1 1021.1 1017.8
20 16.09 З 5 9000 м морось {ливн. осадки} 9/9 630 м
[]
+3.3 +1.4 87 -2 -2 1021.4 1018.1
21 16.09 ЮЗ 3 35 км в посл. час дождь {ливн. осадки} 9/9 720 м
[]
+4.0 +0.2 76 0 0 1021.6 1018.3
22 16.09 З 4 40 км {ливн. осадки} 9/0
[]
+3.9 +0.9 81 -0 -0 1021.8 1018.4
23 16.09 З 3 30 км ливневой дождь 9/9 540 м
[]
+3.6 -0.2 76 -0 -0 1022.0 1018.7
00 17.09 ЮЗ 3 50 км {ливн. осадки} 8/8 800 м
[]
+2.8 +0.4 84 -1 -1 1022.2 1018.8
01 17.09 Ю 3 30 км в посл. час дождь {ливн. осадки} 9/9 1500 м
[]
+2.8 +0.6 85 -1 -1 1022.3 1018.9
02 17.09 Ю 3 40 км в посл. час дождь {ливн. осадки} 9/9 1500 м
[]
+2.5 +0.8 89 -1 -1 1022.3 1019.0
03 17.09 Ю 3 50 км {ливн. осадки, дождь} 9/9 900 м
[]
+2.6 +0.9 89 -1 -1 1022.5 1019.1
04 17.09 ЮЗ 4 5000 м слаб. ливневой дождь 9/9 840 м
[]
+2.3 +0.6 89 -3 -3 1022.7 1019.3
05 17.09 Ю 3 50 км ливневой дождь 9/9 800 м
[]
+2.4 +0.7 89 -2 -2 1022.7 1019.3
06 17.09 Ю 4 6000 м слаб. ливневой дождь 9/9 630 м
[]
+2.1 +0.8 91 -3 -3 1022.9 1019.6 +2.0 +5.0
07 17.09 Ю 4 40 км в посл. час дождь {ливн. осадки} 9/9 600 м
[]
+1.8 +0.6 92 -3 -3 1023.3 1020.0
08 17.09 Ю 3 17 км слаб. ливневой дождь 9/9 600 м
[]
+2.2 +1.2 93 -2 -2 1023.5 1020.2
09 17.09 Ю 2 50 км {ливн. осадки} 9/9 570 м
[]
+2.5 +1.7 94 -1 -1 1023.6 1020.3
10 17.09 ЮЗ 1 45 км {ливн. осадки} 9/9 600 м
[]
+2.9 +2.1 94 +1 +1 1023.8 1020.4
11 17.09 Ю 2 45 км {ливн. осадки} 9/9 840 м
[]
+3.1 +2.1 93 +1 +1 1024.0 1020.6
12 17.09 С 3 30 км морось 10/10 270 м
[]
+2.7 +1.3 90 -1 -1 1024.1 1020.8
13 17.09 С 1 45 км слаб. морось {дождь} 10/10 660 м
[]
+2.6 +1.1 90 +1 +1 1024.1 1020.8

 

Местоположение метеостанции Aasiaat Mittarfia (Гренландия): широта 68.72 долгота -52.80 высота над уровнем моря 27 м.

В архиве по умолчанию представлена погода в Aasiaat Mittarfia за последнюю неделю. Архивные данные за месяц целиком и за предыдущие месяцы, начиная с января 2011 года, Вы можете получить, выбрав интересующий диапазон дат из раскрывающегося списка и нажав кнопку "Ввод!".


*Определитесь, кто Вы:
робот инопланетянин человек

Внимание! Время в таблицах - всемирное. Для получения местного времени необходимо прибавить поправку, которая равна -3 ч.

Смотрите также архив погоды в соседних городах и на ближайших метеорологических станциях:

Погода в Aasiaat (Гренландия) (3 км)
Погода в Ilulissat (Гренландия) (90 км)
Погода в Kitsissut (Гренландия) (115 км)
Погода в Sisimiut Mittarfia (Гренландия) (201 км)
Погода в Kangerlussuaq (Гренландия) (209 км)
Погода Qaarsut Mittarfia (Гренландия) (224 км)
Погода в Nuussuaataa (Гренландия) (229 км)
Погода в Maniitsoq Mittarfia (Гренландия) (367 км)
Погода в Sioralik (Гренландия) (412 км)
Погода на Мысе Дайер (Нунавут, Канада) (429 км)

Пояснения к столбцам:

Ветер - указаны скорость ветра в м/с - средняя за 10 мин, порывы в срок и между сроками (в фигурных скобках) и направление, откуда дует ветер: С - северный, СВ - северо-восточный, В - восточный, ЮВ - юго-восточный, Ю - южный, ЮЗ - юго-западный, З - западный, СЗ - северо-западный.
Видимость - горизонтальная дальность видимости в метрах или километрах. При видимости от 1 до 10 км при отсутствии осадков обычно наблюдается дымка, при ухудшении видимости до 1 км и менее - туман. В сухую погоду видимость может ухудшаться дымом, пылью или мглою.
Явления - указаны атмосферные явления, наблюдавшиеся в срок или в последний час перед сроком; фигурными скобками обозначены явления, наблюдавшиеся между сроками (за 1-3 часа до срока); квадратными скобками обозначены град или гололедные отложения с указанием их диаметра в мм.
Облачность - указаны через наклонную черту общая и нижняя облачность в баллах и высота нижней границы облаков в метрах; квадратными скобками обозначены формы облаков: Ci - перистые, Cs - перисто-слоистые, Cc - перисто-кучевые, Ac - высококучевые, As - высокослоистые, Sc - слоисто-кучевые, Ns - слоисто-дождевые, Cu - кучевые, Cb - кучево-дождевые. Подробнее классификацию облаков см. в Атласе облаков (PDF).
T - Температура воздуха - температура, измеренная на высоте 2 м над землей.
Td - Температура точки росы - температура, при понижении до которой содержащийся в воздухе водяной пар достигнет насыщения.
f - Относительная влажность воздуха - влажноcть воздуха, измеренная на высоте 2 м над землей.
Te - Эффективная температура - температура, которую ощущает одетый по сезону человек в тени. Характеристика душности погоды. При расчете учитывается влияние влажности воздуха и скорости ветра на теплоощущения человека.
Tes - Эффективная температура на солнце - температура, которую ощущает человек, с поправкой на солнечный нагрев. Характеристика знойности погоды. Зависит от высоты солнца над горизонтом, облачности и скорости ветра. Ночью, в пасмурную погоду, а также при ветре 12 м/с и более поправка равна нулю.
P - Атмосферное давление - приведенное к уровню моря атмосферное давление.
Po - Атмосферное давление - измеренное на уровне метеостанции атмосферное давление.
Tmin - Минимальная температура - минимум температуры воздуха на высоте 2 м над землей.
Tmax - Максимальная температура - максимум температуры воздуха на высоте 2 м над землей.
R - Количество осадков - Количество выпавших осадков за период времени, мм. При наведении курсора мыши на число - период времени, за который выпало указанное количество осадков.
R24 - Количество осадков - Количество выпавших осадков за 24 часа, мм.
S - Снежный покров - Высота снежного покрова, см. При наведении курсора мыши на число - состояние снежного покрова и степень покрытия местности в баллах.